Location: Aufkirchen
(47.9603°N, 11.3653°E)
Time: 22:58:49
(UTC+01:00)

SR - All Passes

Search period start: 05 December 2020 00:00
Search period end: 15 December 2020 00:00
Orbit: 579 x 877 km, 66.7° (Epoch: 04 December)

Date Brightness Start Highest point End Pass type
(mag) Time Alt. Az. Time Alt. Az. Time Alt. Az.
05 Dec - 01:03:19 10° NNW 01:08:29 52° NE 01:14:01 10° SE night (unlit)
05 Dec - 02:45:40 10° NW 02:50:25 32° WSW 02:55:26 10° S night (unlit)
05 Dec - 15:40:41 10° ESE 15:42:11 12° ESE 15:43:43 10° E daylight
05 Dec - 17:18:56 10° SSW 17:23:20 89° ESE 17:28:06 10° NE visible
05 Dec - 19:02:46 10° W 19:06:06 20° NNW 19:09:39 10° NNE visible
05 Dec - 22:32:56 10° N 22:34:48 12° NNE 22:36:44 10° NE night (unlit)
06 Dec - 00:13:46 10° NNW 00:18:29 32° NE 00:23:30 10° ESE night (unlit)
06 Dec - 01:55:35 10° NW 02:00:52 57° WSW 02:06:28 10° SSE night (unlit)
06 Dec - 16:29:32 10° S 16:33:42 45° ESE 16:38:11 10° NE daylight
06 Dec - 18:11:57 10° WSW 18:15:55 30° NW 18:20:12 10° NNE visible
06 Dec - 19:58:27 10° NNW 19:59:41 11° NNW 20:00:56 10° N visible
06 Dec - 23:24:18 10° NNW 23:28:19 22° NE 23:32:33 10° E night (unlit)
07 Dec - 01:05:46 10° NNW 01:11:08 83° NE 01:16:53 10° SE night (unlit)
07 Dec - 02:48:57 10° WNW 02:52:42 19° WSW 02:56:33 10° SSW night (unlit)
07 Dec - 15:40:53 10° SSE 15:44:17 22° ESE 15:47:52 10° ENE daylight
07 Dec - 17:21:36 10° SW 17:25:55 51° NW 17:30:38 10° NNE visible
07 Dec - 19:06:38 10° WNW 19:09:11 14° NNW 19:11:52 10° N visible
07 Dec - 22:34:56 10° N 22:38:00 15° NNE 22:41:11 10° ENE night (unlit)
08 Dec - 00:16:07 10° NNW 00:21:17 49° NE 00:26:48 10° SE night (unlit)
08 Dec - 01:58:24 10° NW 02:03:16 34° WSW 02:08:22 10° S night (unlit)
08 Dec - 14:53:58 10° ESE 14:55:02 11° ESE 14:56:06 10° E daylight
08 Dec - 16:31:42 10° SSW 16:36:07 84° ESE 16:40:54 10° NE daylight
08 Dec - 18:15:24 10° W 18:18:51 20° NNW 18:22:31 10° NNE visible
08 Dec - 21:45:44 10° N 21:47:32 12° NNE 21:49:23 10° NE night (unlit)
08 Dec - 23:26:34 10° NNW 23:31:16 31° NE 23:36:15 10° ESE night (unlit)
09 Dec - 01:08:22 10° NW 01:13:41 61° WSW 01:19:20 10° SSE night (unlit)
09 Dec - 02:54:19 10° W 02:54:50 10° WSW 02:55:21 10° WSW night (unlit)
09 Dec - 15:42:22 10° S 15:46:30 42° ESE 15:50:58 10° NE daylight
09 Dec - 17:24:38 10° WSW 17:28:41 32° NW 17:33:03 10° NNE visible
09 Dec - 19:10:55 10° NW 19:12:24 11° NNW 19:13:55 10° N visible
09 Dec - 22:37:07 10° NNW 22:41:05 21° NE 22:45:15 10° E night (unlit)
10 Dec - 00:18:33 10° NNW 00:23:57 79° NE 00:29:43 10° SE night (unlit)
10 Dec - 02:01:37 10° WNW 02:05:33 20° WSW 02:09:36 10° SSW night (unlit)
10 Dec - 14:53:47 10° SSE 14:57:06 21° ESE 15:00:35 10° ENE daylight
10 Dec - 16:34:19 10° SW 16:38:41 55° NW 16:43:27 10° NNE daylight
10 Dec - 18:19:12 10° WNW 18:21:55 15° NNW 18:24:46 10° N visible
10 Dec - 21:47:44 10° N 21:50:45 15° NNE 21:53:52 10° ENE night (unlit)
10 Dec - 23:28:54 10° NNW 23:34:04 47° NE 23:39:35 10° ESE night (unlit)
11 Dec - 01:11:09 10° NW 01:16:06 36° WSW 01:21:18 10° S night (unlit)
11 Dec - 15:44:29 10° SSW 15:48:54 79° ESE 15:53:42 10° NE daylight
11 Dec - 17:28:02 10° W 17:31:35 21° NW 17:35:22 10° NNE visible
11 Dec - 20:58:31 10° N 21:00:16 11° NNE 21:02:01 10° NE visible
11 Dec - 22:39:22 10° NNW 22:44:02 30° NE 22:48:59 10° ESE night (unlit)
12 Dec - 00:21:07 10° NW 00:26:30 64° WSW 00:32:11 10° SSE night (unlit)
12 Dec - 02:06:12 10° W 02:07:41 11° WSW 02:09:11 10° WSW night (unlit)
12 Dec - 14:55:12 10° S 14:59:18 39° ESE 15:03:44 10° NE daylight
12 Dec - 16:37:18 10° WSW 16:41:25 33° NW 16:45:53 10° NNE daylight
12 Dec - 18:23:24 10° NW 18:25:06 12° NNW 18:26:51 10° N visible
12 Dec - 21:49:54 10° NNW 21:53:50 21° NNE 21:57:57 10° E night (unlit)
12 Dec - 23:31:20 10° NNW 23:36:45 75° NE 23:42:31 10° SE night (unlit)
13 Dec - 01:14:18 10° WNW 01:18:23 21° WSW 01:22:37 10° SSW night (unlit)
13 Dec - 14:06:42 10° SSE 14:09:55 20° ESE 14:13:18 10° ENE daylight
13 Dec - 15:47:02 10° SW 15:51:27 58° NW 15:56:16 10° NNE daylight
13 Dec - 17:31:48 10° WNW 17:34:38 16° NNW 17:37:38 10° N visible
13 Dec - 21:00:32 10° N 21:03:28 15° NNE 21:06:31 10° ENE visible
13 Dec - 22:41:42 10° NNW 22:46:51 45° NE 22:52:20 10° ESE night (unlit)
14 Dec - 00:23:53 10° NW 00:28:55 38° WSW 00:34:13 10° S night (unlit)
14 Dec - 14:57:15 10° SSW 15:01:41 74° ESE 15:06:30 10° NE daylight
14 Dec - 16:40:40 10° W 16:44:20 22° NW 16:48:13 10° NNE daylight
14 Dec - 20:11:18 10° N 20:12:58 11° NNE 20:14:40 10° NE visible
14 Dec - 21:52:09 10° NNW 21:56:48 29° NE 22:01:42 10° E night (unlit)
14 Dec - 23:33:53 10° NW 23:39:18 68° WSW 23:45:03 10° SSE night (unlit)
